FW6594 Weather Reports


time (UTC)temp
C
wind
direction
speed
KPH
gust
KPH
rain 1hr
cm
rain 24hr
cm
rain mn
cm
humidity
%
barometer
mb
20260506123547 12 356 1.6 3.2 0.00 0.00 0.00 63 1003.7
20260506122527 12 88 3.2 8.0 0.00 0.00 0.00 61 1003.7
20260506121522 12 120 4.8 12.9 0.00 0.00 0.00 63 1003.7
20260506120530 12 37 3.2 8.0 0.00 0.00 0.00 65 1003.8
20260506115527 12 4 6.4 16.1 0.00 0.00 0.00 61 1003.7
20260506114547 11 107 3.2 8.0 0.00 0.00 0.00 62
20260506113522 10 160 4.8 8.0 0.00 0.00 0.00 64
20260506112530 10 8 6.4 12.9 0.00 0.00 0.00 68
20260506111527 10 40 3.2 8.0 0.00 0.00 0.00 70 1004.0
20260506110527 10 73 3.2 8.0 0.00 0.00 0.00 71 1004.0
20260506105527 10 67 3.2 3.2 0.00 0.00 0.00 71 1004.0
20260506104527 10 11 4.8 16.1 0.00 0.00 0.00 70 1003.7
20260506103522 10 92 1.6 3.2 0.00 0.00 0.00 69 1003.7
20260506102530 11 59 3.2 8.0 0.00 0.00 0.00 70 1003.7
20260506101547 11 315 4.8 8.0 0.00 0.00 0.00 68 1003.7
20260506100527 11 85 3.2 8.0 0.00 0.00 0.00 67 1003.9
20260506095522 11 34 9.7 20.9 0.00 0.00 0.00 63 1003.7
20260506094530 11 28 3.2 8.0 0.00 0.00 0.00 67 1003.9
20260506093547 12 351 4.8 8.0 0.00 0.00 0.00 62 1003.7
20260506092527 11 45 3.2 3.2 0.00 0.00 0.00 68 1003.8
20260506091542 11 61 3.2 3.2 0.00 0.00 0.00 64 1004.0
20260506090550 10 0.0 0.0 0.00 0.00 0.00 69 1004.0
20260506085527 11 59 0.0 3.2 0.00 0.00 0.00 72 1004.0
20260506084527 11 4 4.8 12.9 0.00 0.00 0.00 69 1004.0
20260506083522 11 68 4.8 12.9 0.00 0.00 0.00 69 1003.7
20260506082530 11 66 1.6 3.2 0.00 0.00 0.00 68 1004.0
20260506081527 10 98 1.6 3.2 0.00 0.00 0.00 71 1004.0
20260506080527 10 51 3.2 12.9 0.00 0.00 0.00 69 1004.0
20260506073526 10 14 1.6 8.0 0.00 0.00 0.00 72 1004.0
20260506072527 9 37 1.6 3.2 0.00 0.00 0.00 73 1004.0
20260506071522 8 319 6.4 12.9 0.00 0.00 0.00 74 1004.0
20260506070610 8 312 3.2 8.0 0.00 0.00 0.00 75 1003.8
20260506061527 5 32 0.0 3.2 0.00 0.00 0.00 82 1003.8
20260506060547 5 355 1.6 3.2 0.00 0.00 0.00 85 1003.6
20260506051027 4 10 1.6 3.2 0.00 0.00 0.00 89 1003.4
20260506045017 3 0.0 0.0 0.00 0.00 0.00 90 1003.2
20260506044026 3 61 0.0 3.2 0.00 0.00 0.00 90 1003.2
20260506043027 3 0.0 0.0 0.00 0.00 0.00 90 1003.3
20260506042027 4 0.0 0.0 0.00 0.00 0.00 90 1003.4
20260506041047 4 359 1.6 3.2 0.00 0.00 0.00 89 1003.3
20260506040052 5 0.0 0.0 0.00 0.00 0.00 89 1003.3
20260506035033 5 28 1.6 3.2 0.00 0.00 0.00 89 1003.3
20260506034026 6 0.0 0.0 0.00 0.00 0.00 89 1003.3
20260506033127 6 0.0 0.0 0.00 0.00 0.00 89 1003.3
20260506032727 6 339 3.2 8.0 0.00 0.00 0.00 89 1003.7
20260506031626 6 0.0 0.0 0.00 0.00 0.00 88 1003.3
20260506030027 6 0.0 0.0 0.00 0.00 0.00 88 1003.3
20260506024827 6 0.0 0.0 0.00 0.00 0.00 88 1003.3
20260506023447 6 0.0 0.0 0.00 0.00 0.00 88 1003.3
20260506022442 7 0.0 0.0 0.00 0.00 0.00 88 1003.4
20260506021626 7 279 3.2 3.2 0.00 0.00 0.00 87 1003.4
20260506014326 7 49 3.2 3.2 0.00 0.00 0.00 88 1003.7
20260506012930 7 0.0 0.0 0.00 0.00 0.00 87 1003.7
20260506012441 7 0.0 0.0 0.00 0.00 0.00 87 1003.7
20260506010127 7 63 0.0 3.2 0.00 0.00 0.00 86 1004.1
20260506003225 7 0.0 0.0 0.00 0.00 0.00 85 1004.1
20260506002327 7 0.0 0.0 0.00 0.00 0.00 85 1004.1
20260506001242 7 0.0 0.0 0.00 0.00 0.00 84 1004.1
20260505233227 7 0.0 0.0 0.00 0.00 0.00 83 1004.1
20260505232810 -17 0.0 0.0 0.00 0.00 0.00
20260505230002 -17 0.0 0.0 0.00 0.00 0.00
20260505222727 8 56 3.2 3.2 0.00 0.00 0.00 81 1004.5
20260505221833 8 0.0 0.0 0.00 0.00 0.00 80 1004.5
20260505220546 8 0.0 0.0 0.00 0.00 0.00 80 1004.5
20260505215027 8 0.0 0.0 0.00 0.00 0.00 78 1004.4
20260505213702 8 11 4.8 8.0 0.00 0.00 0.00 77 1004.4
20260505212425 8 142 1.6 3.2 0.00 0.00 0.00 76 1004.4
20260505210126 8 0.0 0.0 0.00 0.00 0.00 76 1004.4
20260505203557 8 29 0.0 3.2 0.00 0.00 0.00 75 1004.1
20260505202705 9 0.0 0.0 0.00 0.00 0.00 75 1004.1
20260505201526 9 61 4.8 8.0 0.00 0.00 0.00 73 1004.1
20260505200425 9 328 4.8 8.0 0.00 0.00 0.00 74 1003.9
20260505195628 10 0.0 0.0 0.00 0.00 0.00 77 1004.1
20260505194530 10 55 1.6 3.2 0.00 0.00 0.00 78 1003.7
20260505193427 10 22 8.0 12.9 0.00 0.00 0.00 78 1003.7
20260505192445 10 76 4.8 12.9 0.00 0.00 0.00 77 1003.6
20260505191427 10 353 4.8 8.0 0.00 0.00 0.00 77 1003.4
20260505190425 10 39 3.2 8.0 0.00 0.00 0.00 77 1003.4
20260505185417 10 0.0 0.0 0.00 0.00 0.00 77 1003.4
20260505184446 10 12 6.4 12.9 0.00 0.00 0.00 77 1003.4
20260505183426 11 291 1.6 8.0 0.00 0.00 0.00 76 1003.0
20260505182445 11 8 3.2 8.0 0.00 0.00 0.00 72 1003.0
20260505181417 11 29 1.6 3.2 0.00 0.00 0.00 72 1003.0
20260505180426 11 40 3.2 8.0 0.00 0.00 0.00 73 1003.0
20260505175426 11 5 4.8 8.0 0.00 0.00 0.00 73 1003.0
20260505174425 11 25 6.4 16.1 0.00 0.00 0.00 76 1003.0
20260505173326 11 358 4.8 8.0 0.00 0.00 0.00 76 1003.0
20260505172321 11 45 4.8 8.0 0.00 0.00 0.00 75 1003.0
20260505171333 11 31 6.4 12.9 0.00 0.00 0.00 77 1002.6
20260505170129 12 37 4.8 12.9 0.00 0.00 0.00 77 1002.7
20260505165126 12 46 1.6 3.2 0.00 0.00 0.00 77 1002.7
20260505164129 12 32 0.0 3.2 0.00 0.00 0.00 76 1002.8
20260505163121 12 347 4.8 8.0 0.00 0.00 0.00 75 1002.7
20260505162129 12 57 6.4 12.9 0.00 0.00 0.00 73 1002.7
20260505161121 12 0.0 0.0 0.00 0.00 0.00 74 1002.7
20260505160149 12 71 1.6 3.2 0.00 0.00 0.00 74 1002.7
20260505153141 13 41 4.8 12.9 0.00 0.00 0.00 72 1002.4
20260505152129 13 119 6.4 12.9 0.00 0.00 0.00 65 1002.4
20260505151126 13 341 3.2 8.0 0.00 0.00 0.00 66 1002.2
20260505150126 13 43 4.8 12.9 0.00 0.00 0.00 63 1002.4
20260505140129 13 316 3.2 8.0 0.00 0.00 0.00 60 1002.1
20260505130129 14 42 4.8 8.0 0.00 0.00 0.00 60 1002.3